Clear Lake Weather Center

Moon Phase Calendar



Clear Lake Water Level
Online Cameras

 


      

Current Conditions in Soda Bay
12/8/2021 5:30:34 AM

47°F
Feels Like 41
Clouds
Humidity
95%
Pressure
30.18"
Wind
11 mph (N)
Dew Point
45°F
UV Index
0/10 (Low)
Visibility
6 mi

Hourly Forecast

Date & Time Wed, Dec 8
5:00 AM
Wed, Dec 8
6:00 AM
Wed, Dec 8
7:00 AM
Wed, Dec 8
8:00 AM
Wed, Dec 8
9:00 AM
Wed, Dec 8
10:00 AM
Wed, Dec 8
11:00 AM
Wed, Dec 8
12:00 PM
Wed, Dec 8
1:00 PM
Wed, Dec 8
2:00 PM
Wed, Dec 8
3:00 PM
Wed, Dec 8
4:00 PM
Wed, Dec 8
5:00 PM
Wed, Dec 8
6:00 PM
Wed, Dec 8
7:00 PM
Wed, Dec 8
8:00 PM
Wed, Dec 8
9:00 PM
Wed, Dec 8
10:00 PM
Wed, Dec 8
11:00 PM
Thu, Dec 9
12:00 AM
Thu, Dec 9
1:00 AM
Thu, Dec 9
2:00 AM
Thu, Dec 9
3:00 AM
Thu, Dec 9
4:00 AM
Thu, Dec 9
5:00 AM
Thu, Dec 9
6:00 AM
Thu, Dec 9
7:00 AM
Thu, Dec 9
8:00 AM
Thu, Dec 9
9:00 AM
Thu, Dec 9
10:00 AM
Thu, Dec 9
11:00 AM
Thu, Dec 9
12:00 PM
Thu, Dec 9
1:00 PM
Thu, Dec 9
2:00 PM
Thu, Dec 9
3:00 PM
Thu, Dec 9
4:00 PM
Thu, Dec 9
5:00 PM
Thu, Dec 9
6:00 PM
Thu, Dec 9
7:00 PM
Thu, Dec 9
8:00 PM
Thu, Dec 9
9:00 PM
Thu, Dec 9
10:00 PM
Thu, Dec 9
11:00 PM
Fri, Dec 10
12:00 AM
Fri, Dec 10
1:00 AM
Fri, Dec 10
2:00 AM
Fri, Dec 10
3:00 AM
Fri, Dec 10
4:00 AM
Condition
Clouds

Clouds

Clouds

Clouds

Clouds

Clouds

Clouds

Clouds

Clouds

Clouds

Clouds

Clouds

Clouds

Clouds

Clouds

Clouds

Clouds

Clouds

Rain

Rain

Rain

Clouds

Clouds

Clouds

Clouds

Clouds

Clouds

Clouds

Clouds

Clouds

Clear

Clear

Clear

Clear

Clear

Clear

Clouds

Clouds

Clouds

Clouds

Clouds

Clouds

Clouds

Clouds

Clouds

Clouds

Clouds

Clouds
Temperature 47°F47°F47°F47°F50°F52°F54°F54°F54°F53°F52°F52°F51°F50°F50°F49°F49°F48°F48°F47°F46°F45°F45°F44°F42°F42°F42°F40°F42°F45°F48°F50°F51°F51°F51°F49°F43°F41°F40°F39°F38°F37°F37°F37°F36°F36°F36°F36°F
Feels Like 47°F47°F47°F47°F50°F51°F53°F53°F53°F52°F51°F51°F50°F49°F49°F49°F48°F47°F47°F46°F44°F43°F42°F42°F38°F38°F37°F36°F38°F43°F47°F49°F49°F49°F48°F49°F42°F39°F37°F35°F35°F34°F34°F34°F36°F36°F36°F36°F
Cloudiness 88%90%90%90%86%87%100%100%100%100%100%100%100%100%100%100%100%100%100%100%100%100%100%100%81%88%89%80%66%57%4%4%4%4%6%7%19%48%43%43%46%40%14%37%33%26%22%20%
Visibility 6 mi6 mi6 mi6 mi6 mi6 mi6 mi6 mi6 mi6 mi6 mi6 mi6 mi6 mi6 mi6 mi6 mi6 mi6 mi6 mi6 mi6 mi6 mi6 mi6 mi6 mi6 mi6 mi6 mi6 mi6 mi6 mi6 mi6 mi6 mi6 mi6 mi6 mi6 mi6 mi6 mi6 mi6 mi6 mi6 mi6 mi6 mi6 mi
Precipitation 0%0%0%0%0%0%0%0%0%0%0%0%4%0%0%0%0%0%71%78%70%66%62%58%4%0%0%0%0%0%0%0%0%0%0%0%0%0%0%0%0%0%0%0%0%0%0%0%
Humidity 96%95%96%97%93%88%83%81%80%84%87%90%94%95%95%96%96%96%96%95%95%95%95%94%94%90%87%90%82%73%65%60%54%50%46%52%62%67%71%74%75%75%75%74%75%75%76%77%
Dew Point 46°F45°F46°F46°F48°F49°F47°F46°F46°F46°F47°F47°F47°F47°F46°F46°F46°F45°F45°F44°F43°F42°F41°F41°F39°F37°F36°F36°F35°F35°F35°F35°F33°F32°F30°F31°F30°F29°F29°F29°F29°F28°F28°F27°F27°F27°F27°F28°F
Pressure 30.15"30.18"30.15"30.12"30.09"30.06"30.03"30"29.97"29.97"29.94"29.97"29.94"29.94"29.94"29.94"29.94"29.94"29.94"29.91"29.91"29.91"29.91"29.91"29.91"29.94"29.94"29.97"30"30"30"30"29.97"29.97"30"30"30"30.03"30.06"30.09"30.12"30.12"30.15"30.15"30.15"30.15"30.15"30.15"
Wind Speed 0.9 mph1.3 mph1.9 mph1.2 mph2.1 mph2.6 mph2.8 mph3.2 mph3.3 mph3.4 mph3.1 mph2.9 mph2.7 mph2.6 mph3 mph3.1 mph3.6 mph3.7 mph4 mph4.4 mph4.2 mph4.7 mph5.4 mph4.6 mph7 mph7.2 mph7.1 mph5.8 mph6 mph4.3 mph3.4 mph4.3 mph4.1 mph6.2 mph6.1 mph3.2 mph3.1 mph3.7 mph4.3 mph4.6 mph4.2 mph4.2 mph3.9 mph3.1 mph2.3 mph2.3 mph2.3 mph2.6 mph
Wind
Direction
131°
SE
262°
W
259°
W
222°
SW
254°
WSW
222°
SW
226°
SW
232°
SW
237°
WSW
234°
SW
236°
SW
251°
WSW
253°
WSW
257°
WSW
266°
W
260°
W
262°
W
266°
W
262°
W
263°
W
258°
WSW
264°
W
278°
W
273°
W
291°
WNW
303°
WNW
306°
NW
308°
NW
317°
NW
316°
NW
297°
WNW
289°
WNW
280°
W
288°
WNW
301°
WNW
279°
W
276°
W
294°
WNW
304°
NW
316°
NW
314°
NW
317°
NW
318°
NW
328°
NNW
330°
NNW
347°
NNW
344°
NNW
345°
NNW

Daily Forecast

Date High Low Precip. Humidity
Today
Dec 8

Rain
54 °F
47 °F
71%
81%
Thursday
Dec 9

Rain
51 °F
37 °F
78%
60%
Friday
Dec 10

Clouds
54 °F
36 °F
0%
34%
Saturday
Dec 11

Rain
51 °F
37 °F
74%
47%
Sunday
Dec 12

Rain
48 °F
44 °F
100%
87%
Monday
Dec 13

Rain
45 °F
38 °F
100%
92%
Tuesday
Dec 14

Snow
41 °F
30 °F
61%
71%
Wednesday
Dec 15

Snow
40 °F
32 °F
100%
99%
Thursday
Dec 16

Rain
43 °F
38 °F
100%
99%
Friday
Dec 17

Rain
41 °F
31 °F
38%
87%
Saturday
Dec 18

Clear
47 °F
30 °F
0%
64%
Sunday
Dec 19

Clouds
53 °F
33 °F
0%
54%
Monday
Dec 20

Clear
52 °F
36 °F
0%
58%
Tuesday
Dec 21

Clouds
51 °F
35 °F
0%
63%
Wednesday
Dec 22

Rain
43 °F
36 °F
100%
99%
Thursday
Dec 23

Clouds
48 °F
35 °F
0%
63%

Temperature 8-14 Day Outlook



Precipitation 8-14 Day Outlook




Quick Links
Clear Lake News
Clear Lake Photos
Clear Lake Videos




About Us
Contact Us
Site Map
Search Site
Advertise With Us
   
Clear.USLakes.info
THE CLEAR LAKE WEBSITE

Copyright 2021, Lakes Online
Privacy    |    Legal